EW5414 Weather Reports


Display with metric or nautical units.
time (UTC)temp
F
wind
direction
speed
MPH
gust
MPH
rain 1hr
in
rain 24hr
in
rain mn
in
humidity
%
barometer
mb
20260505041541 48 298 0.0 0.0 0.05 0.47 0.20 92 1012.2
20260505040024 48 297 0.0 0.0 0.03 0.44 0.18 92 1012.3
20260505034524 48 312 0.0 0.0 0.03 0.43 0.16 92 1012.3
20260505033014 48 312 0.0 0.0 0.03 0.42 0.15 92 1012.3
20260505031526 48 312 0.0 0.0 0.04 0.42 0.14 92 1012.4
20260505030024 48 312 0.0 0.0 0.05 0.41 0.14 92 1012.5
20260505024504 48 312 0.0 0.0 0.07 0.40 0.13 92 1012.5
20260505023008 48 312 0.0 0.0 0.07 0.39 0.11 92 1012.4
20260505021518 48 312 0.0 0.0 0.08 0.37 0.10 92 1012.7
20260505020019 48 312 0.0 0.0 0.07 0.36 0.08 92 1012.9
20260505014523 48 312 0.0 0.0 0.06 0.33 0.06 92 1013.0
20260505013010 48 312 0.0 0.0 0.04 0.32 0.04 92 1013.2
20260505011513 48 312 0.0 0.0 0.01 0.29 0.01 92 1013.4
20260505010016 48 312 0.0 0.0 0.00 0.28 0.00 92 1013.2
20260505004522 48 312 0.0 0.0 0.00 0.27 0.00 92 1013.3
20260505003029 47 312 0.0 0.0 0.00 0.27 0.00 92 1013.6
20260505001509 47 312 0.0 0.0 0.00 0.27 0.00 92 1013.5
20260505000014 47 312 0.0 0.0 0.00 0.27 0.00 92 1013.2
20260504234518 47 312 0.0 0.0 0.00 0.27 0.00 91 1013.3
20260504233025 47 312 0.0 0.0 0.00 0.27 0.00 91 1013.5
20260504231529 47 312 0.0 0.0 0.00 0.27 0.00 92 1013.6
20260504230025 47 312 0.0 0.0 0.00 0.27 0.00 92 1013.7
20260504224522 47 312 0.0 0.0 0.00 0.27 0.00 91 1013.6
20260504223022 47 312 0.0 0.0 0.00 0.27 0.00 91 1013.8
20260504221525 47 312 0.0 0.0 0.00 0.27 0.00 91 1013.8
20260504220027 47 312 0.0 0.0 0.00 0.27 0.00 91 1013.8
20260504214538 48 312 0.0 0.0 0.00 0.27 0.27 91 1014.1
20260504213014 48 312 0.0 0.0 0.00 0.27 0.27 91 1014.3
20260504211502 48 312 0.0 0.0 0.00 0.27 0.27 91 1014.2
20260504210009 48 312 0.0 0.0 0.00 0.27 0.27 91 1014.3
20260504204512 48 312 0.0 0.0 0.00 0.27 0.27 91 1014.4
20260504203018 48 312 0.0 0.0 0.00 0.27 0.27 90 1014.6
20260504201516 49 312 0.0 0.0 0.00 0.27 0.27 90 1014.6
20260504200008 49 312 0.0 0.0 0.00 0.27 0.27 90 1014.8
20260504194509 49 312 0.0 0.0 0.00 0.27 0.27 91 1014.8
20260504193011 49 312 0.0 0.0 0.00 0.27 0.27 90 1014.9
20260504191520 49 312 0.0 0.0 0.00 0.27 0.27 90 1015.0
20260504190021 49 312 0.0 0.0 0.00 0.27 0.27 90 1015.0
20260504184531 49 312 0.0 0.0 0.00 0.27 0.27 90 1015.0
20260504183008 49 311 0.0 0.0 0.00 0.27 0.27 90 1015.2
20260504181509 50 311 0.0 0.0 0.00 0.27 0.27 90 1015.3
20260504180015 50 300 0.0 1.0 0.00 0.27 0.27 90 1015.3
20260504174520 50 296 0.0 1.0 0.00 0.27 0.27 90 1015.5
20260504173026 50 269 0.0 1.0 0.00 0.27 0.27 90 1015.5
20260504171507 50 272 0.0 0.0 0.00 0.27 0.27 90 1015.7
20260504081527 54 111 0.0 0.0 0.00 0.00 0.00 82 1016.2